Montpelier, VT

3:29 AM EST on February 09, 2016 (GMT -0500)
Knapp State

Weather History for KMPV - January, 2014

Change the Weather History Date:

Sunday, January 5, 2014

  Actual Average Record
Temperature  
Mean Temperature 21 °F 17 °F  
Max Temperature 32 °F 27 °F 59 °F (1950)
Min Temperature 9 °F 8 °F -17 °F (1996)
Degree Days  
Heating Degree Days 44 48  
Month to date heating degree days 313 238  
Since 1 July heating degree days 3571 3386  
Cooling Degree Days 0 0  
Month to date cooling degree days 0  
Year to date cooling degree days 0  
Moisture  
Dew Point 17 °F    
Average Humidity 76    
Maximum Humidity 100    
Minimum Humidity 51    
Precipitation  
Precipitation 0.10 in 0.08 in 0.41 in ()
Month to date precipitation 0.33 0.37  
Year to date precipitation 0.33 0.37  
Sea Level Pressure  
Sea Level Pressure 30.16 in    
Wind  
Wind Speed 3 mph (South)    
Max Wind Speed 12 mph    
Max Gust Speed 16 mph    
Visibility 8 miles    
Events Rain    
T = Trace of Precipitation, MM = Missing Value Source: NWS Daily Summary

Daily Weather History Graph

Daily Weather History Graph

Search for Another Location

Airport or City:

Trip Planner

Search our weather history database for the weather conditions in past years. The results will help you decide how hot, cold, wet, or windy it might be!

Date:

Astronomy

Jan. 05, 2014 Rise Set
Actual Time 7:25 AM EST 4:26 PM EST
Civil Twilight 6:52 AM EST 4:58 PM EST
Nautical Twilight 6:16 AM EST 5:35 PM EST
Astronomical Twilight 5:41 AM EST 6:10 PM EST
Moon 9:54 AM EST (1/5) 10:03 PM EST (1/5)
Length of Visible Light 10h 06m
Length of Day
9h 00m
Waxing Crescent, 24% of the Moon is Illuminated
Jan 5
Waxing Crescent
Jan 7
First Quarter
Jan 15
Full
Jan 24
Last Quarter
Jan 30
New

Hourly Weather History & Observations

Time (EST) Temp. Windchill Dew Point Humidity Pressure Visibility Wind Dir Wind Speed Gust Speed Precip Events Conditions
12:51 AM 18.0 °F 11.1 °F 5.0 °F 57% 30.21 in 10.0 mi SSE 4.6 mph - 0.01 in   Overcast
1:51 AM 16.0 °F - 6.1 °F 65% 30.25 in 10.0 mi Calm Calm - N/A   Mostly Cloudy
2:51 AM 10.9 °F - 7.0 °F 84% 30.25 in 10.0 mi Calm Calm - N/A   Clear
3:51 AM 10.9 °F - 5.0 °F 77% 30.24 in 10.0 mi Calm Calm - N/A   Clear
4:51 AM 10.9 °F - 7.0 °F 84% 30.25 in 10.0 mi Calm Calm - N/A   Clear
5:51 AM 10.9 °F - 7.0 °F 84% 30.26 in 10.0 mi Calm Calm - N/A   Clear
6:51 AM 10.9 °F - 7.0 °F 84% 30.28 in 10.0 mi Calm Calm - N/A   Clear
7:51 AM 9.0 °F - 7.0 °F 92% 30.31 in 10.0 mi Calm Calm - N/A   Clear
8:51 AM 10.9 °F - 7.0 °F 84% 30.31 in 9.0 mi Calm Calm - N/A   Scattered Clouds
9:51 AM 14.0 °F - 9.0 °F 80% 30.31 in 9.0 mi Calm Calm - N/A   Clear
10:51 AM 19.9 °F - 10.0 °F 65% 30.30 in 10.0 mi Calm Calm - N/A   Overcast
11:51 AM 21.9 °F 17.2 °F 12.9 °F 68% 30.27 in 10.0 mi North 3.5 mph - N/A   Overcast
12:51 PM 26.1 °F - 16.0 °F 66% 30.24 in 10.0 mi Calm Calm - N/A   Overcast
1:51 PM 27.0 °F - 16.0 °F 63% 30.21 in 10.0 mi Calm Calm - N/A   Clear
2:51 PM 30.9 °F 23.5 °F 15.1 °F 52% 30.20 in 10.0 mi SSE 8.1 mph - N/A   Scattered Clouds
3:51 PM 28.9 °F - 17.1 °F 61% 30.21 in 10.0 mi Calm Calm - N/A   Mostly Cloudy
4:51 PM 28.9 °F - 18.0 °F 64% 30.21 in 10.0 mi Calm Calm - N/A   Overcast
5:51 PM 30.9 °F - 16.0 °F 54% 30.19 in 10.0 mi Calm Calm - N/A   Overcast
6:51 PM 30.9 °F 24.3 °F 15.1 °F 52% 30.18 in 10.0 mi South 6.9 mph - N/A   Overcast
7:51 PM 30.9 °F 24.3 °F 19.0 °F 61% 30.14 in 10.0 mi South 6.9 mph - 0.00 in   Overcast
8:10 PM 30.2 °F 23.4 °F 24.8 °F 80% 30.07 in 5.0 mi SSW 6.9 mph - 0.01 in Rain Light Freezing Rain
8:30 PM 30.2 °F 25.4 °F 26.6 °F 86% 30.06 in 2.5 mi Variable 4.6 mph - 0.02 in Rain Light Freezing Rain
8:51 PM 30.0 °F 21.7 °F 28.0 °F 92% 30.11 in 2.0 mi South 9.2 mph - 0.03 in Rain Light Freezing Rain
9:11 PM 30.2 °F 22.6 °F 28.4 °F 93% 30.03 in 3.0 mi South 8.1 mph - 0.02 in Rain Light Freezing Rain
9:34 PM 30.2 °F 21.9 °F 28.4 °F 93% 30.01 in 5.0 mi South 9.2 mph - 0.03 in   Overcast
9:51 PM 30.9 °F 22.8 °F 28.0 °F 89% 30.05 in 6.0 mi SSE 9.2 mph - 0.04 in   Overcast
10:12 PM 30.2 °F 23.4 °F 28.4 °F 93% 29.97 in 10.0 mi South 6.9 mph - 0.00 in   Overcast
10:29 PM 30.2 °F 25.4 °F 28.4 °F 93% 29.96 in 5.0 mi SSW 4.6 mph - 0.00 in Rain Light Freezing Rain
10:51 PM 30.9 °F 24.3 °F 30.0 °F 96% 29.99 in 5.0 mi South 6.9 mph - 0.01 in Rain Light Freezing Rain
11:44 PM 32.0 °F 24.2 °F 30.2 °F 93% 29.86 in 6.0 mi South 9.2 mph - 0.01 in   Overcast
11:51 PM 32.0 °F 24.2 °F 30.0 °F 92% 29.91 in 7.0 mi SSW 9.2 mph - 0.01 in   Overcast